Showing default

OSCAR 23 (KITSAT 1), 22077

Orbit data source: Space-Track

OSCAR 23 (KITSAT 1), 22077 is a payload satellite owned by KAIST (KR) in LEO that was launched on Mon, 10 Aug 1992 UTC via an ARIANE 42P launch vehicle from the French Guiana (FRGUI). Payload-class satellites include a variety of spacecraft equipped with specific instruments for various scientific and technological missions. These include communications satellites like Starlink; space stations such as the ISS; scientific satellites like the Hubble; Earth observation satellites from companies like Planet Labs, Umbra, and HawkEye 360; GPS; miniature CubeSats for education and research; and military/defense satellites.

Loading next visibility...
Identifier
22077, 1992-052B
Orbit
LEO
Country
Flag of UnknownUnknown / SKOR
Related business
Manufacturer
SSTL
Mission
Non-operational Civil Communications
Bus & Motor
UOSAT, Unknown motor
Mass
48 kg wet, 48 kg dry
Launch date (UTC)
1992-08-10 (33 years ago)
Launch vehicle
ARIANE 42P
Launch site
French Guiana (FRGUI)
Object type
Payload
Rocket body
Debris
Shape & HBR
Hex Poly, 0.3 m
Radar Cross Section
0.353 m², Medium (>0.1 m² and < 1m²)

Expand to show TLE details & history
Last TLE update: 20 hours ago

TLE from 20 hours ago
0 OSCAR 23 (KITSAT 1)
1 22077U 92052B   25260.10792375 -.00000049  00000-0  50440-4 0  9996
2 22077  66.0836 133.2039 0003641 349.2026 177.1000 12.86601545554558
Epoch: 2025-09-17T02:35Z
TLE epoch observation values (Epoch: 2025-09-17T02:35:24.611Z)
Latitude
12.47719°
Longitude
-87.54068°
Altitude
1,319.009 km
Speed
7.198 km/s
True Right ascension
20h 30m 24s
True Declination
12° 24' 36"
Sunlit
Object was in full shadow at epoch
Visualization orbit readout
Latitude
Unknown
Longitude
Unknown
Altitude
Unknown
Speed
Unknown
Apparent Right ascension
Unknown
Apparent Declination
Unknown
Sunlit
N/A
Visualization observer readout
Local Sidereal Time
15:38:38
Azimuth
Unknown
Elevation
Unknown
Doppler factor
Unknown
Orbital elements
Apogee altitude
1,316.396 km
Perigee altitude
1,310.795 km
Semi-major axis
7,691.732 km
Eccentricity
0.00036
Inclination
66.0836°
RAAN
133.2039°
Arg. of periapsis
349.2026°
True anomaly
177.10211°
Mean anomaly
177.1°
Eccentric anomaly
177.10106°
Mean motion
3.21741 °/min
Orbital period
111.89 mins
BSTAR
0.00005044
Loading maneuver chart data...
Computing Atmospheric mass density...
Loading historical data...
Loading historical data...
Loading historical data...
Loading historical data...
Loading historical data...
Loading historical data...
Loading historical data...

Documentation

Showing up to 5 results
|